Overview Statistics Trail Chart Weather Telemetry Raw packets
 

This is the latest recevied weather packets stored in our database for station/object SV9TNF-57. If no packets are shown the sender has not sent any weather packets the latest 10 day(s).

<< 17 18 19 20 21 22 23 >>
Time Temp. Humidity Pressure Rain* Wind** Luminosity Snow
1788538485 27.78° C 50% 995.5 hPa 0 mm 7.6 m/s, 356° - -
1788538185 27.78° C 49% 995.5 hPa 0 mm 0 m/s - -
1788537885 27.78° C 48% 995.3 hPa 0 mm 4.47 m/s, 12° - -
1788537585 28.33° C 47% 995.4 hPa 0 mm 1.34 m/s, 262° - -
1788537285 28.33° C 47% 995.4 hPa 0 mm 0.89 m/s, 289° - -
1788536985 28.33° C 47% 995.3 hPa 0 mm 6.26 m/s, 298° - -
1788536685 28.89° C 48% 995.3 hPa 0 mm 6.71 m/s, 312° - -
1788536385 28.89° C 47% 995.3 hPa 0 mm 0.89 m/s, 341° - -
1788536085 28.89° C 49% 995.2 hPa 0 mm 2.24 m/s, 324° - -
1788535785 28.89° C 51% 995 hPa 0 mm 0.89 m/s, 310° - -
1788535485 28.89° C 51% 995 hPa 0 mm 6.71 m/s, 0° - -
1788535185 28.89° C 51% 994.9 hPa 0 mm 2.68 m/s, 50° - -
1788534884 28.89° C 52% 994.6 hPa 0 mm 2.68 m/s, 32° - -
1788534584 28.33° C 51% 995 hPa 0 mm 4.92 m/s, 263° - -
1788534284 28.33° C 53% 994.8 hPa 0 mm 3.58 m/s, 325° - -
1788533984 28.33° C 53% 994.6 hPa 0 mm 0.45 m/s, 329° - -
1788533684 28.33° C 55% 994.7 hPa 0 mm 4.92 m/s, 294° - -
1788533384 28.89° C 55% 994.5 hPa 0 mm 7.15 m/s, 299° - -
1788533084 28.89° C 56% 994.6 hPa 0 mm 2.68 m/s, 17° - -
1788532784 28.89° C 53% 994.6 hPa 0 mm 6.71 m/s, 300° - -
1788532483 28.89° C 53% 994.7 hPa 0 mm 5.36 m/s, 298° - -
1788532184 29.44° C 50% 994.4 hPa 0 mm 6.26 m/s, 316° - -
1788531883 29.44° C 51% 994.3 hPa 0 mm 5.36 m/s, 340° - -
1788531583 28.89° C 52% 994.3 hPa 0 mm 8.05 m/s, 15° - -
1788531283 28.89° C 54% 994.3 hPa 0 mm 6.26 m/s, 124° - -

* Rain latest hour (hover to see other rain measurements)
** Current wind speed in m/s (hover to see current wind gust speed)